{"data":{"norad_id":55773,"intl_designator":"2023-028AJ","name":"STARLINK-5833","alt_names":[],"object_type":"PAYLOAD","status":"ACTIVE","operator":null,"country":"US","launch_date":"2023-03-03","launch_site_code":"AFWTR","launch_vehicle":null,"mission":null,"orbit_class":"UNKNOWN","rcs_meters":null,"size_class":null,"mass_kg":null,"dimensions":null,"purposes":["comms"],"wikipedia_slug":null,"has_3d_model":false,"image_url":null,"decayed_at":null,"tle_current":{"epoch":"2026-05-25T01:55:38.102304Z","epoch_age_seconds":64230,"freshness":"FRESH","line1":"1 55773U 23028AJ  26145.08030211 -.00000253  00000+0 -13392-4 0  9998","line2":"2 55773  69.9999  31.9324 0002587 270.1795  89.9067 14.98329458177978","mean_motion":14.98329458,"eccentricity":0.0002587,"inclination_deg":69.9999,"raan_deg":31.9324,"arg_perigee_deg":270.1795,"mean_anomaly_deg":89.9067,"bstar":-1.3392e-5,"rev_number":17797,"period_min":96.107033891074,"perigee_km":570.25955170072,"apogee_km":573.8555823697,"semimajor_km":6950.1945670352,"source":"CELESTRAK","updated_at":"2026-05-25T13:38:17.884271Z"}}}